Regional Weather Roundup
Issued by NWS

Home | Current Version | Previous Version | Graphics & Text | Print | Product List | Glossary On
Versions: 1 2 3 4 5 6 7 8 9 10 11 12 13 14 15 16 17 18 19 20 21 22 23 24 25 26 27
000
ASUS45 KBOU 170606
RWRCO

WEATHER ROUNDUP FOR COLORADO
NATIONAL WEATHER SERVICE DENVER/BOULDER CO
1200 AM MDT THU APR 17 2014

NOTE: "FAIR" INDICATES FEW OR NO CLOUDS BELOW 12000 FEET WITH NO
SIGNIFICANT WEATHER AND/OR OBSTRUCTIONS TO VISIBILITY.

COZ001>005-013-030-031-170700-
...NORTHWEST COLORADO...

CITY           SKY/WX    TMP DP  RH WIND       PRES   REMARKS
CRAIG          PTCLDY    30  21  69 CALM      30.02R
HAYDEN         CLOUDY    36  18  48 E9        30.04R
MEEKER         CLOUDY    37  19  48 SE6       30.03R
MOUNT WERNER   NOT AVBL
STEAMBOAT SPGS MOCLDY    32  16  52 CALM      30.03R
WALDEN         PTCLDY    28  19  69 SE6       30.04R WCI  22
$$

COZ006>008-011-170700-
...WEST CENTRAL VALLEYS...

CITY           SKY/WX    TMP DP  RH WIND       PRES   REMARKS
GRAND JUNCTION CLEAR     41  22  46 E5        29.97R
MONTROSE       CLEAR     41  26  55 SE8       30.03R
EAGLE          PTCLDY    37  21  52 CALM      30.06R
RIFLE          PTCLDY    36  23  59 CALM      30.01R
DELTA          CLEAR     41  22  47 NE7       30.01R
NUCLA          NOT AVBL
$$

COZ017>023-064>068-170700-
...SOUTHWEST COLORADO...

CITY           SKY/WX    TMP DP  RH WIND       PRES   REMARKS
DURANGO        CLEAR     40  21  46 W5        29.99R
CORTEZ         CLEAR     31  21  66 NE5       30.02R WCI  26
PAGOSA SPRINGS CLEAR     38  26  62 N3        30.02R
TELLURIDE      CLEAR     32  25  74 CALM      30.08R
WOLF CREEK PAS PTCLDY    21  21 100 NE13      30.11R WCI   9
$$

COZ009-010-012-014-032>034-037-058>063-170700-
...CENTRAL COLORADO...

CITY           SKY/WX    TMP DP  RH WIND       PRES   REMARKS
ASPEN          PTCLDY    32  21  64 S7        30.04R WCI  26
BUENA VISTA    LGT SNOW  31  29  93 CALM      30.12R
COPPER MTN     CLOUDY    25  10  54 W5        30.12R WCI  19
BERTHOUD PASS  CLOUDY    14   5  67 W16       30.11S WCI  -2
COTTONWOOD PAS HVY SNOW  30  27  86 SE8       30.12R VSB 1/4 WCI  23
GUNNISON       CLEAR     32  19  59 N5        30.09R WCI  27
KREMMLING      CLOUDY    30  19  64 CALM      30.06S
LEADVILLE      CLOUDY    24  23  96 S12       30.08R FOG     WCI  13
MONARCH PASS   HVY SNOW  19  18  93 MISG      30.20S VSB<1/4
SALIDA         CLOUDY    33  32  96 E8        30.19S WCI  26
SUNLIGHT       CLEAR     28  12  50 CALM      30.12S
WILKERSON PASS LGT SNOW  21  19  93 CALM      30.14R
$$

COZ069>075-170700-
...SAN LUIS VALLEY/SANGRE DE CRISTO MOUNTAINS...

CITY           SKY/WX    TMP DP  RH WIND       PRES   REMARKS
ALAMOSA        FLURRIES  33  32  96 SE6       30.06R WCI  28
LA VETA PASS   HVY SNOW  23  21  93 MISG      30.10R VSB 1/4
SAGUACHE       CLOUDY    34  30  86 SW3       30.08R
$$

COZ035-036-038>040-170700-
...NORTHERN COLORADO FRONT RANGE...

CITY           SKY/WX    TMP DP  RH WIND       PRES   REMARKS
DENVER INTL AP CLOUDY    40  30  67 S12       30.09R
DMNS CITY PARK   N/A     41  31  66 S6G12     30.10S
AURORA         MOCLDY    37  32  81 SW8       30.10S
FRONT RANGE AP NOT AVBL
ERIE MUNI ARPT CLOUDY    44  31  61 S8        30.09R
BOULDER MUN AP CLOUDY    43  32  65 CALM      30.09R
CENTENNIAL     PTCLDY    34  29  82 SW6       30.10R WCI  29
BROOMFIELD     PTCLDY    41  32  70 S8        30.09S
FORT COLLINS   MOCLDY    43  27  52 SE7       30.11S
LONGMONT       CLOUDY    46  30  54 E5        30.11S
$$

COZ041-046-047-076>085-087-088-170700-
...PIKES PEAK/PALMER DIVIDE AND SOUTHERN FOOTHILLS...

CITY           SKY/WX    TMP DP  RH WIND       PRES   REMARKS
COLO. SPRINGS  LGT SNOW  34  32  92 CALM      30.14R FOG
A. F. ACADEMY  LGT SNOW  32  32 100 CALM      30.12S FOG
ELLICOTT       NOT AVBL
FALCON         LGT SNOW  32  32 100 SW5       30.13S WCI  27
FORT CARSON    LGT RAIN  32  32 100 S2        30.13S
LIMON          CLOUDY    37  30  75 SE5       30.12R
MONUMENT HILL  CLOUDY    30  30 100 S6        30.10R WCI  24
TRINIDAD       LGT RAIN  37  35  92 N6        30.13R
$$

COZ042>045-048>051-090-091-170700-
...NORTHEAST COLORADO...

CITY           SKY/WX    TMP DP  RH WIND       PRES   REMARKS
GREELEY ARPT   MOCLDY    41  27  56 SE9       30.11S
AKRON          CLOUDY    34  31  88 E6        30.12R WCI  29
BURLINGTON     CLOUDY    40  32  73 E6        30.13R
WRAY           MOCLDY    36  33  89 NE9       30.14S
STERLING       CLOUDY    41  34  75 E6        30.13R
HOLYOKE        MOCLDY    34  32  93 E8        30.16R WCI  27
FORT MORGAN    NOT AVBL
$$

COZ086-089-092>099-170700-
...SOUTHEAST COLORADO...

CITY           SKY/WX    TMP DP  RH WIND       PRES   REMARKS
PUEBLO         LGT RAIN  40  37  89 W5        30.14R
LA JUNTA       CLOUDY    45  34  65 NE17      30.12R
LAMAR          LGT RAIN  47  34  60 NE13      30.11R
SPRINGFIELD      N/A     44  32  62 NE14      30.09R
$$



USA.gov is the U.S. government's official web portal to all federal, state and local government web resources and services.